Location: Bacharowice
(49.9333°N, 19.5833°E)
Time: 01:41:26
(UTC+00:00)

USA 215 - Pass Details

Date: 11 May 2021
Orbit: 1100 x 1107 km, 123.0° (Epoch: 14 June)

Event Time Altitude Azimuth Distance (km) Brightness Sun altitude
Rises 19:43:03 0° 77° (ENE) 3,919 5.9 -11.8°
Reaches altitude 10° 19:45:37 10° 72° (ENE) 2,962 5.3 -12.1°
Maximum altitude 19:51:49 48° 1° (N) 1,408 4.2 -12.7°
Drops below altitude 10° 19:58:02 10° 289° (WNW) 2,965 6.5 -13.4°
Sets 20:00:36 0° 284° (WNW) 3,924 7.1 -13.6°
